Brightest
NORAD ID: 13402
Int'l Code: 1982-079A
Perigee: 428.2 km
Apogee: 434.5 km
Inclination: 81.1 °
Period: 93.1 minutes
Semi major axis: 6802 km
Launch date: August 5, 1982
Source: Commonwealth of Independent States (former USSR) (CIS)
Two Line Element Set (TLE):
1 13402U 82079A 13138.75364050 .00024850 00000-0 48348-3 0 9564
2 13402 081.1272 206.5262 0004626 235.8968 272.8550 15.47433003688725
Source:
NASA's NSSDC Master Catalog entry for COSMOS 1400